Melilla, Spain

11:43 PM CET on December 04, 2016 (GMT +0100)
Melilla

Weather History for GEML - January, 2014

Change the Weather History Date:

Monday, January 13, 2014

  Actual Average Record
Temperature  
Mean Temperature 58 °F -  
Max Temperature 64 °F 62 °F 66 °F (1998)
Min Temperature 51 °F 51 °F 44 °F (2005)
Degree Days  
Heating Degree Days 8    
Growing Degree Days 8 (Base 50)    
Moisture  
Dew Point 50 °F    
Average Humidity 75    
Maximum Humidity 94    
Minimum Humidity 54    
Precipitation  
Precipitation 0.12 in - - ()
Sea Level Pressure  
Sea Level Pressure 30.20 in    
Wind  
Wind Speed 5 mph ()    
Max Wind Speed 18 mph    
Max Gust Speed 38 mph    
Visibility 7.6 miles    
Events Rain    
Averages and records for this station are not official NWS values.
T = Trace of Precipitation, MM = Missing Value Source: Averaged Metar Reports

Daily Weather History Graph

Daily Weather History Graph

Search for Another Location

Airport or City:

Trip Planner

Search our weather history database for the weather conditions in past years. The results will help you decide how hot, cold, wet, or windy it might be!

Date:

Astronomy

Jan. 13, 2014 Rise Set
Actual Time 8:20 AM CET 6:20 PM CET
Civil Twilight 7:52 AM CET 6:48 PM CET
Nautical Twilight 7:21 AM CET 7:19 PM CET
Astronomical Twilight 6:50 AM CET 7:50 PM CET
Moon 4:23 PM CET (1/13) 5:58 AM CET (1/13)
Length of Visible Light 10h 55m
Length of Day
10h 00m
Waxing Gibbous, 93% of the Moon is Illuminated
Jan 13
Waxing Gibbous
Jan 16
Full
Jan 24
Last Quarter
Jan 30
New
Feb 6
First Quarter

Hourly Weather History & Observations

Time (CET) Temp. Dew Point Humidity Pressure Visibility Wind Dir Wind Speed Gust Speed Precip Events Conditions
6:00 AM 53.6 °F 46.4 °F 77% 30.21 in - Calm Calm - N/A   Clear
6:30 AM 53.6 °F 46.4 °F 77% 30.21 in - WNW 3.5 mph - N/A   Clear
7:00 AM 56 °F 45 °F 57% 30.22 in 16 mi WNW 3.5 mph - -   Scattered Clouds
7:00 AM 51.8 °F 48.2 °F 88% 30.21 in - WNW 3.5 mph - N/A   Clear
7:30 AM 53.6 °F 48.2 °F 82% 30.21 in - Variable 1.2 mph - N/A   Clear
8:00 AM 53.6 °F 48.2 °F 82% 30.21 in - Calm Calm - N/A   Clear
8:30 AM 55.4 °F 48.2 °F 77% 30.21 in - Calm Calm - N/A   Clear
9:00 AM 55.4 °F 48.2 °F 77% 30.21 in - Variable 1.2 mph - N/A   Clear
9:30 AM 55.4 °F 50.0 °F 82% 30.24 in - West 3.5 mph - N/A   Clear
10:00 AM 56 °F 49 °F 72% 30.25 in 9 mi Calm Calm - -   Overcast
10:00 AM 55.4 °F 50.0 °F 82% 30.24 in - North 1.2 mph - N/A   Clear
10:30 AM 57.2 °F 51.8 °F 82% 30.24 in - Calm Calm - N/A   Clear
11:00 AM 60.8 °F 53.6 °F 77% 30.24 in - Variable 1.2 mph - N/A   Clear
11:30 AM 60.8 °F 51.8 °F 72% 30.24 in - WNW 3.5 mph - N/A   Clear
12:00 PM 60.8 °F 50.0 °F 68% 30.24 in - West 8.1 mph - N/A   Clear
12:30 PM 62.6 °F 51.8 °F 68% 30.21 in - WSW 3.5 mph - N/A   Clear
1:00 PM 63 °F 50 °F 54% 30.22 in 16 mi WSW 9.2 mph - -   Overcast
1:00 PM 62.6 °F 51.8 °F 68% 30.21 in - WSW 9.2 mph - N/A   Clear
1:30 PM 64.4 °F 50.0 °F 59% 30.21 in - WSW 6.9 mph - N/A   Clear
2:00 PM 64.4 °F 48.2 °F 56% 30.18 in - West 8.1 mph - N/A   Clear
2:30 PM 64.4 °F 50.0 °F 59% 30.15 in - West 8.1 mph - N/A   Clear
3:00 PM 62.6 °F 50.0 °F 63% 30.15 in - West 8.1 mph - N/A   Clear
3:30 PM 62.6 °F 50.0 °F 63% 30.15 in - West 9.2 mph - N/A   Clear
4:00 PM 62 °F 51 °F 57% 30.17 in 12 mi West 10.4 mph - -   Overcast
4:00 PM 62.6 °F 51.8 °F 68% 30.15 in 6.2 mi West 10.4 mph - N/A   Partly Cloudy
4:30 PM 60.8 °F 53.6 °F 77% 30.15 in 6.2 mi West 11.5 mph - N/A   Scattered Clouds
5:00 PM 59.0 °F 53.6 °F 82% 30.18 in 6.2 mi WNW 15.0 mph 26.5 mph N/A   Mostly Cloudy
5:13 PM 59.0 °F 53.6 °F 82% 30.18 in 5.0 mi WNW 12.7 mph - N/A Rain Rain
5:30 PM 57.2 °F 55.4 °F 94% 30.18 in 3.7 mi WNW 18.4 mph - N/A Rain Rain
5:42 PM 55.4 °F 51.8 °F 88% 30.21 in 3.7 mi West 18.4 mph 36.8 mph N/A Rain Light Rain
6:00 PM 55.4 °F 51.8 °F 88% 30.21 in 5.6 mi West 12.7 mph - N/A   Light Drizzle
6:30 PM 55.4 °F 51.8 °F 88% 30.21 in 5.6 mi West 13.8 mph - N/A   Light Drizzle
7:00 PM 55 °F 49 °F 76% 30.17 in 4 mi SW 16.1 mph - - Rain Light Rain
7:00 PM 55.4 °F 51.8 °F 88% 30.18 in 3.7 mi SW 16.1 mph - N/A Rain Light Rain
7:30 PM 57.2 °F 48.2 °F 72% 30.15 in 6.2 mi West 12.7 mph - N/A   Scattered Clouds
8:00 PM 55.4 °F 51.8 °F 88% 30.18 in 6.2 mi West 17.3 mph 29.9 mph N/A   Scattered Clouds
8:30 PM 55.4 °F 48.2 °F 77% 30.18 in 6.2 mi West 18.4 mph 38.0 mph N/A   Scattered Clouds
10:00 PM 55 °F 50 °F 77% 30.20 in 16 mi West 17.3 mph - -   Partly Cloudy